| time (UTC) | temp F | wind direction | speed MPH | gust MPH | rain 1hr in | rain 24hr in | rain mn in | humidity % | barometer mb |
| 20260508054522 | 53 | 66 | 0.0 | 1.0 | 0.00 | 1.43 | 0.00 | 97 | 1014.2 |
| 20260508053523 | 53 | 23 | 1.0 | 2.0 | 0.00 | 1.43 | 0.00 | 97 | 1014.3 |
| 20260508052522 | 53 | 20 | 0.0 | 1.0 | 0.00 | 1.43 | 0.00 | 97 | 1014.2 |
| 20260508051523 | 53 | 47 | 0.0 | 2.0 | 0.00 | 1.44 | 0.00 | 97 | 1014.1 |
| 20260508050523 | 53 | 316 | 0.0 | 1.0 | 0.00 | 1.48 | 0.00 | 97 | 1014.2 |
| 20260508045523 | 54 | 45 | 0.0 | 1.0 | 0.00 | 1.65 | 0.00 | 97 | 1014.3 |
| 20260508044524 | 54 | 4 | 1.0 | 2.0 | 0.00 | 1.71 | 0.00 | 97 | 1014.1 |
| 20260508043524 | 54 | 63 | 1.0 | 2.0 | 0.00 | 1.93 | 0.00 | 97 | 1014.1 |
| 20260508042524 | 54 | 34 | 1.0 | 1.0 | 0.00 | 2.05 | 0.00 | 97 | 1014.0 |
| 20260508041524 | 54 | 62 | 1.0 | 1.0 | 0.00 | 2.16 | 0.00 | 97 | 1014.0 |
| 20260508040524 | 54 | 57 | 1.0 | 2.0 | 0.00 | 2.16 | 0.00 | 96 | 1014.0 |
| 20260508035544 | 54 | 65 | 0.0 | 1.0 | 0.00 | 2.16 | 2.16 | 96 | 1013.9 |
| 20260508034524 | 54 | 150 | 0.0 | 1.0 | 0.00 | 2.16 | 2.16 | 97 | 1013.7 |
| 20260508033525 | 54 | 21 | 2.0 | 3.0 | 0.00 | 2.18 | 2.16 | 96 | 1013.4 |
| 20260508032525 | 54 | 15 | 2.0 | 3.0 | 0.00 | 2.19 | 2.16 | 96 | 1013.2 |
| 20260508031525 | 54 | 352 | 0.0 | 1.0 | 0.00 | 2.19 | 2.16 | 96 | 1013.3 |
| 20260508030525 | 54 | 10 | 2.0 | 3.0 | 0.00 | 2.19 | 2.16 | 96 | 1013.2 |
| 20260508025525 | 54 | 240 | 0.0 | 0.0 | 0.00 | 2.19 | 2.16 | 96 | 1013.1 |
| 20260508024525 | 54 | 11 | 2.0 | 3.0 | 0.00 | 2.19 | 2.16 | 96 | 1013.0 |
| 20260508023525 | 54 | 46 | 0.0 | 1.0 | 0.00 | 2.19 | 2.16 | 96 | 1013.0 |
| 20260508022525 | 54 | 61 | 1.0 | 2.0 | 0.00 | 2.19 | 2.16 | 96 | 1013.0 |
| 20260508021526 | 54 | 2 | 1.0 | 2.0 | 0.00 | 2.19 | 2.16 | 96 | 1012.8 |
| 20260508020546 | 54 | 15 | 1.0 | 2.0 | 0.00 | 2.19 | 2.16 | 96 | 1012.5 |
| 20260508015526 | 54 | 13 | 2.0 | 3.0 | 0.00 | 2.19 | 2.16 | 96 | 1012.6 |
| 20260508014526 | 54 | 47 | 0.0 | 1.0 | 0.00 | 2.19 | 2.16 | 96 | 1012.7 |
| 20260508013526 | 54 | 105 | 0.0 | 2.0 | 0.00 | 2.19 | 2.16 | 96 | 1012.5 |
| 20260508012527 | 54 | 20 | 1.0 | 2.0 | 0.04 | 2.19 | 2.16 | 96 | 1012.2 |
| 20260508011527 | 54 | 4 | 3.0 | 4.0 | 0.09 | 2.19 | 2.16 | 96 | 1011.8 |
| 20260508010527 | 54 | 26 | 1.0 | 2.0 | 0.11 | 2.19 | 2.16 | 96 | 1012.0 |
| 20260508005527 | 54 | 6 | 1.0 | 3.0 | 0.11 | 2.19 | 2.16 | 95 | 1011.8 |
| 20260508004527 | 54 | 2 | 1.0 | 2.0 | 0.11 | 2.19 | 2.16 | 95 | 1012.3 |
| 20260508003548 | 54 | 5 | 2.0 | 4.0 | 0.11 | 2.18 | 2.16 | 94 | 1011.6 |
| 20260508002548 | 54 | 20 | 3.0 | 5.0 | 0.08 | 2.15 | 2.13 | 93 | 1012.2 |
| 20260508001539 | 55 | 14 | 3.0 | 5.0 | 0.02 | 2.09 | 2.07 | 92 | 1011.8 |
| 20260508000528 | 55 | 7 | 2.0 | 4.0 | 0.00 | 2.07 | 2.05 | 92 | 1011.0 |
| 20260507235528 | 55 | 8 | 2.0 | 4.0 | 0.00 | 2.07 | 2.05 | 92 | 1010.8 |
| 20260507234528 | 55 | 19 | 2.0 | 4.0 | 0.00 | 2.07 | 2.05 | 92 | 1010.8 |
| 20260507233519 | 55 | 2 | 3.0 | 6.0 | 0.00 | 2.07 | 2.05 | 91 | 1010.8 |
| 20260507232519 | 55 | 6 | 3.0 | 6.0 | 0.00 | 2.07 | 2.05 | 91 | 1010.9 |
| 20260507231520 | 55 | 9 | 4.0 | 8.0 | 0.00 | 2.07 | 2.05 | 92 | 1010.8 |
| 20260507230540 | 55 | 3 | 3.0 | 6.0 | 0.00 | 2.07 | 2.05 | 91 | 1010.7 |
| 20260507225540 | 55 | 8 | 4.0 | 9.0 | 0.00 | 2.07 | 2.05 | 91 | 1010.7 |
| 20260507224540 | 55 | 6 | 3.0 | 7.0 | 0.00 | 2.07 | 2.05 | 91 | 1010.5 |
| 20260507223520 | 55 | 12 | 3.0 | 7.0 | 0.00 | 2.07 | 2.05 | 91 | 1010.3 |
| 20260507222520 | 55 | 7 | 3.0 | 8.0 | 0.00 | 2.07 | 2.05 | 91 | 1010.2 |
| 20260507221520 | 55 | 8 | 3.0 | 7.0 | 0.00 | 2.07 | 2.05 | 91 | 1010.2 |
| 20260507220520 | 55 | 5 | 3.0 | 6.0 | 0.00 | 2.07 | 2.05 | 91 | 1010.3 |
| 20260507215521 | 54 | 18 | 4.0 | 7.0 | 0.00 | 2.07 | 2.05 | 91 | 1010.7 |
| 20260507214521 | 54 | 9 | 3.0 | 7.0 | 0.00 | 2.07 | 2.05 | 93 | 1010.5 |
| 20260507213518 | 55 | 3 | 6.0 | 15.0 | 0.00 | 2.07 | 2.05 | 93 | 1010.2 |
| 20260507212521 | 55 | 6 | 4.0 | 8.0 | 0.00 | 2.07 | 2.05 | 94 | 1010.0 |
| 20260507211535 | 56 | 3 | 3.0 | 7.0 | 0.00 | 2.07 | 2.05 | 94 | 1009.8 |
| 20260507210515 | 56 | 2 | 6.0 | 12.0 | 0.03 | 2.07 | 2.05 | 95 | 1009.7 |
| 20260507205516 | 57 | 16 | 6.0 | 15.0 | 0.11 | 2.07 | 2.05 | 95 | 1009.6 |
| 20260507204516 | 57 | 15 | 7.0 | 12.0 | 0.22 | 2.07 | 2.05 | 95 | 1009.3 |
| 20260507203516 | 57 | 356 | 3.0 | 7.0 | 0.22 | 2.07 | 2.05 | 95 | 1009.3 |
| 20260507202516 | 57 | 359 | 5.0 | 8.0 | 0.22 | 2.07 | 2.05 | 95 | 1009.3 |
| 20260507201516 | 58 | 5 | 3.0 | 7.0 | 0.22 | 2.07 | 2.05 | 95 | 1009.5 |
| 20260507200516 | 58 | 4 | 2.0 | 5.0 | 0.19 | 2.04 | 2.01 | 95 | 1009.3 |
| 20260507195516 | 58 | 17 | 3.0 | 7.0 | 0.12 | 1.96 | 1.94 | 95 | 1009.3 |
| 20260507194517 | 58 | 17 | 4.0 | 8.0 | 0.17 | 1.85 | 1.83 | 95 | 1009.5 |
| 20260507193517 | 59 | 23 | 4.0 | 7.0 | 0.19 | 1.85 | 1.83 | 95 | 1009.3 |
| 20260507192537 | 59 | 6 | 3.0 | 8.0 | 0.18 | 1.87 | 1.82 | 95 | 1009.5 |
| 20260507191517 | 60 | 6 | 5.0 | 8.0 | 0.18 | 1.90 | 1.82 | 95 | 1009.2 |
| 20260507190516 | 61 | 351 | 6.0 | 13.0 | 0.18 | 1.90 | 1.82 | 94 | 1009.2 |
| 20260507185536 | 62 | 344 | 5.0 | 11.0 | 0.18 | 1.91 | 1.82 | 93 | 1008.4 |
| 20260507184537 | 64 | 354 | 4.0 | 7.0 | 0.02 | 1.74 | 1.66 | 92 | 1008.9 |
| 20260507183516 | 69 | 358 | 5.0 | 13.0 | 0.00 | 1.72 | 1.64 | 88 | 1009.0 |
| 20260507182516 | 73 | 255 | 1.0 | 3.0 | 0.00 | 1.72 | 1.64 | 86 | 1007.9 |
| 20260507181517 | 73 | 240 | 1.0 | 3.0 | 0.00 | 1.72 | 1.64 | 87 | 1007.7 |
| 20260507180516 | 71 | 231 | 1.0 | 4.0 | 0.00 | 1.72 | 1.64 | 89 | 1007.5 |
| 20260507175516 | 71 | 228 | 2.0 | 5.0 | 0.00 | 1.72 | 1.64 | 91 | 1008.3 |
| 20260507174516 | 71 | 243 | 3.0 | 8.0 | 0.01 | 1.72 | 1.64 | 91 | 1008.6 |
| 20260507173538 | 71 | 240 | 2.0 | 5.0 | 0.01 | 1.72 | 1.64 | 91 | 1008.1 |
| 20260507172517 | 71 | 238 | 2.0 | 4.0 | 0.01 | 1.72 | 1.64 | 92 | 1007.9 |
| 20260507171517 | 70 | 239 | 3.0 | 5.0 | 0.01 | 1.72 | 1.64 | 94 | 1007.5 |
| 20260507170518 | 69 | 206 | 1.0 | 2.0 | 0.01 | 1.72 | 1.64 | 94 | 1007.9 |
| 20260507165518 | 69 | 194 | 1.0 | 2.0 | 0.00 | 1.72 | 1.64 | 94 | 1008.3 |
| 20260507164517 | 69 | 201 | 1.0 | 2.0 | 0.00 | 1.72 | 1.63 | 94 | 1008.7 |
| 20260507163518 | 69 | 221 | 3.0 | 5.0 | 0.00 | 1.72 | 1.63 | 94 | 1009.0 |
| 20260507162517 | 68 | 224 | 3.0 | 5.0 | 0.00 | 1.72 | 1.63 | 94 | 1009.2 |
| 20260507161518 | 68 | 221 | 1.0 | 3.0 | 0.01 | 1.72 | 1.63 | 94 | 1009.6 |
| 20260507160520 | 68 | 212 | 1.0 | 3.0 | 0.02 | 1.72 | 1.63 | 94 | 1009.8 |
| 20260507155518 | 68 | 219 | 2.0 | 6.0 | 0.08 | 1.71 | 1.63 | 94 | 1009.6 |
| 20260507154538 | 68 | 223 | 3.0 | 4.0 | 0.15 | 1.71 | 1.63 | 95 | 1009.2 |
| 20260507153518 | 68 | 222 | 2.0 | 4.0 | 0.30 | 1.71 | 1.63 | 95 | 1008.9 |
| 20260507152538 | 67 | 226 | 2.0 | 5.0 | 0.40 | 1.71 | 1.63 | 94 | 1009.3 |
| 20260507151539 | 67 | 223 | 2.0 | 3.0 | 0.49 | 1.71 | 1.62 | 93 | 1009.2 |
| 20260507150539 | 67 | 237 | 3.0 | 8.0 | 0.57 | 1.69 | 1.61 | 94 | 1009.4 |
| 20260507145517 | 67 | 216 | 3.0 | 17.0 | 0.51 | 1.63 | 1.55 | 95 | 1009.9 |
| 20260507144517 | 67 | 211 | 3.0 | 11.0 | 0.44 | 1.56 | 1.48 | 95 | 1010.0 |
| 20260507143537 | 67 | 175 | 5.0 | 27.0 | 0.30 | 1.42 | 1.33 | 95 | 1010.0 |
| 20260507142519 | 68 | 163 | 2.0 | 6.0 | 0.19 | 1.32 | 1.23 | 95 | 1010.1 |
| 20260507141519 | 68 | 197 | 3.0 | 8.0 | 0.10 | 1.22 | 1.13 | 95 | 1010.2 |
| 20260507140539 | 68 | 219 | 1.0 | 2.0 | 0.01 | 1.13 | 1.04 | 95 | 1010.2 |
| 20260507135519 | 68 | 208 | 1.0 | 2.0 | 0.00 | 1.12 | 1.04 | 95 | 1010.2 |
| 20260507134519 | 68 | 223 | 1.0 | 2.0 | 0.00 | 1.12 | 1.04 | 95 | 1010.1 |
| 20260507133540 | 68 | 221 | 1.0 | 2.0 | 0.00 | 1.12 | 1.04 | 95 | 1010.0 |
| 20260507132519 | 68 | 221 | 1.0 | 2.0 | 0.00 | 1.12 | 1.04 | 95 | 1010.1 |
| 20260507131520 | 68 | 226 | 1.0 | 2.0 | 0.00 | 1.12 | 1.04 | 96 | 1010.0 |
| 20260507130520 | 68 | 210 | 1.0 | 3.0 | 0.00 | 1.12 | 1.04 | 96 | 1009.8 |
| 20260507125520 | 67 | 234 | 2.0 | 3.0 | 0.00 | 1.12 | 1.04 | 96 | 1009.8 |
| 20260507124522 | 67 | 241 | 1.0 | 3.0 | 0.00 | 1.12 | 1.04 | 96 | 1009.9 |
| 20260507123521 | 67 | 222 | 2.0 | 4.0 | 0.00 | 1.12 | 1.04 | 97 | 1010.0 |
| 20260507122521 | 67 | 172 | 1.0 | 3.0 | 0.00 | 1.12 | 1.04 | 97 | 1010.2 |
| 20260507121521 | 67 | 248 | 1.0 | 2.0 | 0.00 | 1.12 | 1.04 | 97 | 1010.2 |
| 20260507120522 | 66 | 240 | 1.0 | 2.0 | 0.00 | 1.12 | 1.04 | 97 | 1010.4 |
| 20260507115521 | 66 | 190 | 1.0 | 2.0 | 0.00 | 1.12 | 1.04 | 97 | 1010.5 |
| 20260507114521 | 66 | 193 | 1.0 | 2.0 | 0.00 | 1.12 | 1.04 | 97 | 1010.7 |
| 20260507113523 | 66 | 249 | 1.0 | 2.0 | 0.02 | 1.12 | 1.04 | 97 | 1010.8 |
| 20260507112522 | 66 | 270 | 1.0 | 2.0 | 0.04 | 1.12 | 1.04 | 97 | 1010.6 |
| 20260507111522 | 66 | 219 | 1.0 | 2.0 | 0.04 | 1.12 | 1.04 | 97 | 1010.8 |
| 20260507110522 | 66 | 264 | 1.0 | 2.0 | 0.05 | 1.12 | 1.04 | 97 | 1010.8 |
| 20260507105522 | 66 | 251 | 1.0 | 2.0 | 0.06 | 1.12 | 1.04 | 97 | 1010.6 |
| 20260507104522 | 66 | 263 | 1.0 | 2.0 | 0.07 | 1.12 | 1.04 | 97 | 1010.6 |
| 20260507103523 | 66 | 326 | 1.0 | 2.0 | 0.07 | 1.10 | 1.02 | 97 | 1010.6 |
| 20260507102543 | 66 | 246 | 1.0 | 3.0 | 0.05 | 1.08 | 1.00 | 97 | 1010.4 |
| 20260507101523 | 66 | 310 | 1.0 | 2.0 | 0.05 | 1.08 | 0.99 | 97 | 1010.7 |
| 20260507100543 | 66 | 244 | 1.0 | 3.0 | 0.05 | 1.07 | 0.99 | 97 | 1010.6 |
| 20260507095523 | 66 | 206 | 2.0 | 4.0 | 0.05 | 1.06 | 0.98 | 97 | 1010.3 |
| 20260507094544 | 66 | 216 | 1.0 | 3.0 | 0.03 | 1.05 | 0.97 | 97 | 1010.4 |
| 20260507093524 | 66 | 222 | 2.0 | 3.0 | 0.04 | 1.04 | 0.96 | 97 | 1010.4 |
| 20260507092524 | 66 | 222 | 1.0 | 4.0 | 0.08 | 1.03 | 0.95 | 97 | 1010.3 |
| 20260507091524 | 66 | 233 | 1.0 | 2.0 | 0.13 | 1.02 | 0.94 | 97 | 1010.5 |
| 20260507090544 | 66 | 212 | 1.0 | 3.0 | 0.13 | 1.02 | 0.93 | 97 | 1010.4 |
| 20260507085524 | 66 | 242 | 1.0 | 3.0 | 0.14 | 1.02 | 0.93 | 97 | 1010.6 |
| 20260507084517 | 66 | 228 | 1.0 | 4.0 | 0.17 | 1.02 | 0.93 | 97 | 1010.7 |
| 20260507083538 | 66 | 222 | 2.0 | 3.0 | 0.17 | 1.00 | 0.92 | 97 | 1010.8 |
| 20260507082518 | 66 | 204 | 2.0 | 3.0 | 0.12 | 0.95 | 0.86 | 97 | 1011.2 |
| 20260507081538 | 65 | 222 | 2.0 | 4.0 | 0.08 | 0.89 | 0.81 | 97 | 1011.2 |
| 20260507080538 | 65 | 163 | 1.0 | 2.0 | 0.08 | 0.89 | 0.80 | 97 | 1011.0 |
| 20260507075515 | 65 | 116 | 1.0 | 3.0 | 0.06 | 0.88 | 0.79 | 97 | 1011.1 |
| 20260507074515 | 65 | 92 | 1.0 | 3.0 | 0.04 | 0.85 | 0.77 | 96 | 1011.2 |
| 20260507073516 | 65 | 88 | 1.0 | 4.0 | 0.02 | 0.83 | 0.75 | 96 | 1011.3 |
| 20260507072516 | 65 | 211 | 1.0 | 2.0 | 0.02 | 0.83 | 0.75 | 96 | 1011.2 |
| 20260507071516 | 65 | 205 | 1.0 | 2.0 | 0.00 | 0.81 | 0.73 | 96 | 1011.5 |
| 20260507070516 | 65 | 70 | 1.0 | 3.0 | 0.00 | 0.81 | 0.73 | 96 | 1011.8 |
| 20260507065516 | 65 | 69 | 1.0 | 3.0 | 0.00 | 0.81 | 0.73 | 96 | 1011.9 |
| 20260507064517 | 65 | 60 | 1.0 | 3.0 | 0.00 | 0.81 | 0.73 | 96 | 1011.8 |
| 20260507063517 | 65 | 47 | 1.0 | 2.0 | 0.00 | 0.81 | 0.73 | 96 | 1011.9 |
| 20260507062517 | 65 | 79 | 1.0 | 2.0 | 0.00 | 0.81 | 0.73 | 96 | 1012.3 |
| 20260507061517 | 65 | 58 | 1.0 | 2.0 | 0.00 | 0.81 | 0.73 | 95 | 1012.5 |
| 20260507060517 | 65 | 55 | 1.0 | 2.0 | 0.05 | 0.81 | 0.73 | 95 | 1012.6 |
| 20260507055517 | 65 | 47 | 1.0 | 3.0 | 0.21 | 0.81 | 0.73 | 95 | 1012.1 |